Weather History for Valdosta Regional, GA

Change the Weather History Date:

Saturday, December 7, 2013

  Actual Average Record
Temperature  
Mean Temperature 77 °F 55 °F  
Max Temperature 83 °F 66 °F 83 °F (2013)
Min Temperature 70 °F 43 °F 26 °F (2010)
Degree Days  
Heating Degree Days 0 11  
Month to date heating degree days 10 72  
Since 1 July heating degree days 176 303  
Cooling Degree Days 12    
Growing Degree Days 26 (Base 50)    
Moisture  
Dew Point 68 °F    
Average Humidity 78    
Maximum Humidity 93    
Minimum Humidity 63    
Precipitation  
Precipitation 0.13 in 0.11 in 0.60 in (1996)
Month to date precipitation 0.13 0.77  
Year to date precipitation 41.47 48.20  
Sea Level Pressure  
Sea Level Pressure 30.20 in    
Wind  
Wind Speed 3 mph (South)    
Max Wind Speed 14 mph    
Max Gust Speed 18 mph    
Visibility 5 miles    
Events Fog , Rain    
T = Trace of Precipitation, MM = Missing Value Source: NWS Daily Summary

Daily Weather History Graph

Daily Weather History Graph

Search for Another Location

Airport:

Trip Planner

Search our weather history database for the weather conditions in past years. The results will help you decide how hot, cold, wet, or windy it might be!

Date:

Astronomy

Dec. 07, 2013 Rise Set
Actual Time 7:17 AM EST 5:31 PM EST
Civil Twilight 6:51 AM EST 5:57 PM EST
Nautical Twilight 6:21 AM EST 6:27 PM EST
Astronomical Twilight 5:52 AM EST 6:57 PM EST
Moon 11:15 AM EST (12/7) 10:56 PM EST (12/7)
Length of Visible Light 11h 06m
Length of Day
10h 13m
Waxing Crescent, 29% of the Moon is Illuminated
Dec 7
Waxing Crescent
Dec 9
First Quarter
Dec 17
Full
Dec 25
Last Quarter
Jan 1
New

Hourly Weather History & Observations

Time (EST) Temp. Heat Index Dew Point Humidity Pressure Visibility Wind Dir Wind Speed Gust Speed Precip Events Conditions
12:32 AM 71.6 °F - 68.0 °F 88% 30.15 in 1.0 mi SSW 5.8 mph - N/A   Overcast
12:53 AM 71.1 °F - 68.0 °F 90% 30.17 in 1.2 mi Variable 4.6 mph - N/A   Overcast
1:16 AM 71.6 °F - 68.0 °F 88% 30.14 in 0.8 mi SSW 3.5 mph - N/A   Overcast
1:53 AM 71.1 °F - 66.9 °F 87% 30.17 in 0.8 mi Variable 3.5 mph - N/A   Mist
2:53 AM 71.1 °F - 66.9 °F 87% 30.16 in 0.8 mi South 4.6 mph - N/A   Mist
3:28 AM 71.6 °F - 68.0 °F 88% 30.14 in 1.2 mi SSW 4.6 mph - N/A   Overcast
3:53 AM 71.1 °F - 68.0 °F 90% 30.17 in 1.8 mi Variable 3.5 mph - N/A   Overcast
4:18 AM 71.6 °F - 68.0 °F 88% 30.15 in 2.5 mi Calm Calm - N/A   Overcast
4:29 AM 71.6 °F - 68.0 °F 88% 30.15 in 3.0 mi Variable 3.5 mph - N/A   Overcast
4:53 AM 72.0 °F - 68.0 °F 87% 30.17 in 4.0 mi Calm Calm - N/A   Overcast
5:53 AM 72.0 °F - 68.0 °F 87% 30.17 in 5.0 mi Calm Calm - N/A   Overcast
6:53 AM 72.0 °F - 68.0 °F 87% 30.19 in 3.0 mi Calm Calm - N/A   Overcast
7:29 AM 71.6 °F - 68.0 °F 88% 30.18 in 1.8 mi SSW 4.6 mph - N/A   Overcast
7:53 AM 72.0 °F - 69.1 °F 91% 30.22 in 3.0 mi Calm Calm - N/A   Overcast
8:20 AM 73.4 °F - 69.8 °F 88% 30.20 in 1.8 mi South 4.6 mph - N/A   Overcast
8:44 AM 73.4 °F - 69.8 °F 88% 30.20 in 3.0 mi South 5.8 mph - 0.00 in   Overcast
8:53 AM 73.0 °F - 69.1 °F 87% 30.23 in 2.0 mi South 8.1 mph - 0.00 in   Overcast
9:00 AM 73.4 °F - 69.8 °F 88% 30.20 in 1.2 mi South 9.2 mph - N/A   Overcast
9:29 AM 73.4 °F - 69.8 °F 88% 30.22 in 3.0 mi Variable 4.6 mph - N/A   Overcast
9:53 AM 73.0 °F - 69.1 °F 87% 30.24 in 6.0 mi South 5.8 mph - N/A   Overcast
10:53 AM 73.9 °F - 69.1 °F 85% 30.25 in 6.0 mi South 5.8 mph - N/A   Haze
11:26 AM 73.4 °F - 69.8 °F 88% 30.22 in 7.0 mi South 8.1 mph - N/A   Overcast
11:53 AM 77.0 °F - 69.1 °F 76% 30.23 in 10.0 mi South 6.9 mph - N/A   Mostly Cloudy
12:10 PM 78.8 °F - 69.8 °F 74% 30.21 in 10.0 mi South 8.1 mph - N/A   Scattered Clouds
12:18 PM 78.8 °F - 68.0 °F 69% 30.20 in 10.0 mi South 11.5 mph 18.4 mph N/A   Mostly Cloudy
12:53 PM 79.0 °F - 68.0 °F 69% 30.21 in 10.0 mi SSW 4.6 mph - N/A   Mostly Cloudy
1:00 PM 80.6 °F 83.9 °F 69.8 °F 70% 30.19 in 10.0 mi Variable 4.6 mph - N/A   Mostly Cloudy
1:53 PM 82.9 °F 85.8 °F 68.0 °F 60% 30.18 in 10.0 mi South 6.9 mph - N/A   Mostly Cloudy
2:01 PM 82.4 °F 85.4 °F 68.0 °F 62% 30.16 in 10.0 mi South 6.9 mph - N/A   Scattered Clouds
2:23 PM 80.6 °F 83.2 °F 68.0 °F 65% 30.15 in 10.0 mi Variable 4.6 mph - N/A   Mostly Cloudy
2:53 PM 82.0 °F 84.9 °F 68.0 °F 62% 30.17 in 10.0 mi South 9.2 mph - N/A   Mostly Cloudy
3:31 PM 82.4 °F 84.6 °F 66.2 °F 58% 30.14 in 10.0 mi Variable 3.5 mph - N/A   Mostly Cloudy
3:53 PM 81.0 °F 83.8 °F 68.0 °F 65% 30.17 in 10.0 mi Variable 3.5 mph - N/A   Overcast
4:53 PM 75.0 °F - 69.1 °F 82% 30.19 in 10.0 mi Calm Calm - 0.01 in Rain Light Rain
5:05 PM 75.2 °F - 69.8 °F 83% 30.17 in 10.0 mi North 3.5 mph - 0.00 in   Overcast
5:13 PM 75.2 °F - 69.8 °F 83% 30.17 in 10.0 mi Calm Calm - 0.00 in   Overcast
5:43 PM 75.2 °F - 69.8 °F 83% 30.18 in 10.0 mi Calm Calm - 0.00 in   Overcast
5:53 PM 75.0 °F - 69.1 °F 82% 30.20 in 10.0 mi Calm Calm - 0.00 in   Overcast
5:55 PM 73.4 °F - 69.8 °F 88% 30.18 in 9.0 mi Calm Calm - N/A   Overcast
6:03 PM 73.4 °F - 69.8 °F 88% 30.18 in 2.5 mi Calm Calm - 0.03 in Rain Heavy Rain
6:10 PM 73.4 °F - 69.8 °F 88% 30.19 in 3.0 mi Calm Calm - 0.04 in Rain Light Rain
6:17 PM 73.4 °F - 68.0 °F 83% 30.19 in 2.5 mi Calm Calm - 0.07 in Rain Rain
6:29 PM 73.4 °F - 69.8 °F 88% 30.19 in 2.5 mi Calm Calm - 0.11 in Rain Rain
6:38 PM 73.4 °F - 69.8 °F 88% 30.19 in 5.0 mi Calm Calm - 0.11 in Rain Light Rain
6:53 PM 73.0 °F - 69.1 °F 87% 30.22 in 8.0 mi Calm Calm - 0.11 in   Overcast
7:02 PM 73.4 °F - 69.8 °F 88% 30.20 in 8.0 mi Calm Calm - N/A   Overcast
7:53 PM 72.0 °F - 68.0 °F 87% 30.23 in 3.0 mi Calm Calm - 0.01 in   Overcast
8:04 PM 71.6 °F - 68.0 °F 88% 30.21 in 1.8 mi Calm Calm - N/A   Overcast
8:11 PM 71.6 °F - 68.0 °F 88% 30.21 in 2.0 mi Calm Calm - N/A   Overcast
8:19 PM 71.6 °F - 68.0 °F 88% 30.21 in 3.0 mi Calm Calm - N/A   Overcast
8:53 PM 72.0 °F - 68.0 °F 87% 30.23 in 3.0 mi Calm Calm - N/A   Overcast
9:03 PM 71.6 °F - 68.0 °F 88% 30.21 in 2.5 mi Calm Calm - N/A   Overcast
9:13 PM 71.6 °F - 68.0 °F 88% 30.21 in 4.0 mi Calm Calm - N/A   Overcast
9:29 PM 71.6 °F - 68.0 °F 88% 30.22 in 4.0 mi Calm Calm - N/A   Overcast
9:39 PM 71.6 °F - 68.0 °F 88% 30.22 in 1.8 mi Calm Calm - N/A   Overcast
9:53 PM 72.0 °F - 68.0 °F 87% 30.24 in 1.2 mi Calm Calm - N/A   Overcast
10:07 PM 71.6 °F - 68.0 °F 88% 30.22 in 0.8 mi Calm Calm - N/A   Overcast
10:18 PM 71.6 °F - 66.2 °F 83% 30.22 in 1.8 mi Calm Calm - N/A   Overcast
10:36 PM 71.6 °F - 66.2 °F 83% 30.22 in 0.5 mi Calm Calm - N/A Fog Fog
10:53 PM 71.1 °F - 68.0 °F 90% 30.24 in 1.0 mi North 3.5 mph - N/A   Overcast
10:56 PM 71.6 °F - 68.0 °F 88% 30.22 in 3.0 mi North 4.6 mph - N/A   Overcast
11:50 PM 71.6 °F - 68.0 °F 88% 30.22 in 6.0 mi NNE 4.6 mph - N/A   Overcast
11:53 PM 72.0 °F - 68.0 °F 87% 30.24 in 6.0 mi NNE 4.6 mph - N/A   Overcast